Weather History for Mount Sterling, KY

Change the Weather History Date:

Thursday, September 13, 2012

  Actual Average Record
Temperature  
Mean Temperature 70 °F -  
Max Temperature 80 °F 81 °F 69 °F (2013)
Min Temperature 60 °F 58 °F 48 °F (2013)
Cooling Degree Days 5    
Growing Degree Days 20 (Base 50)    
Moisture  
Dew Point 61 °F    
Average Humidity 77    
Maximum Humidity 100    
Minimum Humidity 45    
Precipitation  
Precipitation 0.00 in - - ()
Sea Level Pressure  
Sea Level Pressure 30.29 in    
Wind  
Wind Speed 1 mph ()    
Max Wind Speed 9 mph    
Max Gust Speed -    
Visibility 10.0 miles    
Events      
Averages and records for this station are not official NWS values.
T = Trace of Precipitation, MM = Missing Value Source: Averaged Metar Reports

Daily Weather History Graph

Daily Weather History Graph

Search for Another Location

Airport:

Trip Planner

Search our weather history database for the weather conditions in past years. The results will help you decide how hot, cold, wet, or windy it might be!

Date:

Astronomy

Sep. 13, 2012 Rise Set
Actual Time 7:16 AM EDT 7:46 PM EDT
Civil Twilight 6:49 AM EDT 8:12 PM EDT
Nautical Twilight 6:18 AM EDT 8:43 PM EDT
Astronomical Twilight 5:46 AM EDT 9:15 PM EDT
Moon 4:36 AM EDT (9/13) 6:07 PM EDT (9/13)
Length of Visible Light 13h 22m
Length of Day
12h 29m
Waning Crescent, 7% of the Moon is Illuminated
Sep 13
Waning Crescent
Sep 15
New
Sep 22
First Quarter
Sep 29
Full
Oct 8
Last Quarter

Hourly Weather History & Observations

Time (EDT) Temp. Heat Index Dew Point Humidity Pressure Visibility Wind Dir Wind Speed Gust Speed Precip Events Conditions
12:15 AM 60.8 °F - 59.0 °F 94% 30.29 in - Calm Calm - N/A   Mostly Cloudy
12:35 AM 62.6 °F - 60.8 °F 94% 30.29 in - Calm Calm - N/A   Overcast
12:55 AM 60.8 °F - 60.8 °F 100% 30.29 in - Calm Calm - N/A   Overcast
1:15 AM 64.4 °F - 60.8 °F 88% 30.29 in - Calm Calm - N/A   Overcast
1:35 AM 62.6 °F - 60.8 °F 94% 30.29 in - Calm Calm - N/A   Overcast
1:55 AM 62.6 °F - 60.8 °F 94% 30.29 in - Calm Calm - N/A   Overcast
2:15 AM 64.4 °F - 60.8 °F 88% 30.29 in - ESE 3.5 mph - N/A   Overcast
2:35 AM 62.6 °F - 60.8 °F 94% 30.29 in - Calm Calm - N/A   Mostly Cloudy
2:55 AM 62.6 °F - 60.8 °F 94% 30.28 in - Calm Calm - N/A   Overcast
3:15 AM 64.4 °F - 60.8 °F 88% 30.27 in - Calm Calm - N/A   Overcast
3:35 AM 64.4 °F - 60.8 °F 88% 30.27 in - Calm Calm - N/A   Overcast
3:55 AM 64.4 °F - 60.8 °F 88% 30.27 in - SE 5.8 mph - N/A   Overcast
4:15 AM 62.6 °F - 60.8 °F 94% 30.27 in - Calm Calm - N/A   Overcast
4:35 AM 62.6 °F - 60.8 °F 94% 30.27 in - Calm Calm - N/A   Overcast
4:55 AM 62.6 °F - 60.8 °F 94% 30.28 in - Calm Calm - N/A   Mostly Cloudy
5:15 AM 60.8 °F - 60.8 °F 100% 30.29 in - Calm Calm - N/A   Mostly Cloudy
5:35 AM 62.6 °F - 60.8 °F 94% 30.29 in - Calm Calm - N/A   Overcast
5:55 AM 60.8 °F - 60.8 °F 100% 30.30 in - Calm Calm - N/A   Overcast
6:15 AM 60.8 °F - 60.8 °F 100% 30.30 in - Calm Calm - N/A   Mostly Cloudy
6:35 AM 60.8 °F - 59.0 °F 94% 30.31 in - South 3.5 mph - N/A   Overcast
6:55 AM 60.8 °F - 59.0 °F 94% 30.32 in - SSW 3.5 mph - N/A   Overcast
7:15 AM 60.8 °F - 59.0 °F 94% 30.32 in - SSW 4.6 mph - N/A   Mostly Cloudy
7:35 AM 62.6 °F - 59.0 °F 88% 30.33 in - SSW 5.8 mph - N/A   Unknown
7:55 AM 62.6 °F - 59.0 °F 88% 30.33 in - SSW 3.5 mph - N/A   Clear
8:15 AM 64.4 °F - 59.0 °F 83% 30.34 in - SSW 4.6 mph - N/A   Scattered Clouds
8:35 AM 64.4 °F - 59.0 °F 83% 30.34 in - SSW 6.9 mph - N/A   Clear
8:55 AM 66.2 °F - 59.0 °F 78% 30.34 in - SW 6.9 mph - N/A   Clear
9:15 AM - - - N/A% - - North - - N/A   Unknown
9:35 AM - - - N/A% - - North - - N/A   Unknown
10:35 AM - - - N/A% - - North - - N/A   Unknown
10:55 AM 71.6 °F - 60.8 °F 69% 30.35 in - West 4.6 mph - N/A   Clear
11:15 AM 73.4 °F - 60.8 °F 65% 30.35 in 10.0 mi West 9.2 mph - N/A   Clear
11:35 AM - - - N/A% - - North - - N/A   Unknown
12:15 PM - - - N/A% 30.34 in - North - - N/A   Unknown
12:35 PM 78.8 °F - 60.8 °F 54% 30.33 in 10.0 mi NW 3.5 mph - N/A   Clear
12:55 PM 78.8 °F - 60.8 °F 54% 30.33 in 10.0 mi WNW 4.6 mph - N/A   Clear
1:15 PM 78.8 °F - 60.8 °F 54% 30.32 in 10.0 mi WNW 5.8 mph - N/A   Clear
1:35 PM 78.8 °F - 60.8 °F 54% 30.32 in 10.0 mi West 4.6 mph - N/A   Clear
1:55 PM 78.8 °F - 60.8 °F 54% 30.31 in 10.0 mi Calm Calm - N/A   Scattered Clouds
2:15 PM 78.8 °F - 59.0 °F 51% 30.30 in 10.0 mi Calm Calm - N/A   Clear
2:35 PM 80.6 °F 81.5 °F 60.8 °F 51% 30.30 in 10.0 mi Calm Calm - N/A   Scattered Clouds
2:55 PM 80.6 °F 81.1 °F 59.0 °F 48% 30.28 in 10.0 mi Calm Calm - N/A   Scattered Clouds
3:15 PM 80.6 °F 81.5 °F 60.8 °F 51% 30.27 in 10.0 mi Calm Calm - N/A   Scattered Clouds
3:35 PM 80.6 °F 81.1 °F 59.0 °F 48% 30.27 in 10.0 mi Calm Calm - N/A   Scattered Clouds
3:55 PM 78.8 °F - 59.0 °F 51% 30.26 in 10.0 mi Calm Calm - N/A   Clear
4:15 PM 78.8 °F - 59.0 °F 51% 30.25 in 10.0 mi Calm Calm - N/A   Clear
4:35 PM 78.8 °F - 59.0 °F 51% 30.25 in 10.0 mi West 3.5 mph - N/A   Clear
4:55 PM 78.8 °F - 59.0 °F 51% 30.25 in 10.0 mi West 3.5 mph - N/A   Clear
5:15 PM 78.8 °F - 59.0 °F 51% 30.25 in 10.0 mi Calm Calm - N/A   Clear
5:35 PM 80.6 °F 81.1 °F 59.0 °F 48% 30.25 in 10.0 mi Calm Calm - N/A   Clear
5:55 PM 80.6 °F 80.8 °F 57.2 °F 45% 30.25 in 10.0 mi SSW 4.6 mph - N/A   Clear
6:15 PM 78.8 °F - 57.2 °F 47% 30.25 in 10.0 mi SE 3.5 mph - N/A   Clear
6:35 PM 78.8 °F - 59.0 °F 51% 30.25 in 10.0 mi South 3.5 mph - N/A   Clear
6:55 PM 78.8 °F - 59.0 °F 51% 30.25 in 10.0 mi South 3.5 mph - N/A   Clear
7:15 PM 77.0 °F - 59.0 °F 54% 30.25 in 10.0 mi Calm Calm - N/A   Clear
7:35 PM 75.2 °F - 62.6 °F 65% 30.25 in 10.0 mi Calm Calm - N/A   Clear
7:55 PM 71.6 °F - 64.4 °F 78% 30.25 in 10.0 mi Calm Calm - N/A   Clear
8:15 PM 71.6 °F - 64.4 °F 78% 30.25 in 10.0 mi Calm Calm - N/A   Clear
8:35 PM 68.0 °F - 64.4 °F 88% 30.26 in 10.0 mi Calm Calm - N/A   Clear
8:55 PM 68.0 °F - 64.4 °F 88% 30.26 in 10.0 mi Calm Calm - N/A   Clear
9:15 PM 68.0 °F - 62.6 °F 83% 30.26 in 10.0 mi Calm Calm - N/A   Clear
9:35 PM 66.2 °F - 62.6 °F 88% 30.26 in 10.0 mi Calm Calm - N/A   Clear
9:55 PM 64.4 °F - 62.6 °F 94% 30.26 in 10.0 mi Calm Calm - N/A   Clear
10:15 PM 64.4 °F - 62.6 °F 94% 30.27 in 10.0 mi Calm Calm - N/A   Clear
10:35 PM 64.4 °F - 62.6 °F 94% 30.27 in 10.0 mi Calm Calm - N/A   Clear
10:55 PM 62.6 °F - 62.6 °F 100% 30.28 in 10.0 mi Calm Calm - N/A   Clear
11:15 PM 62.6 °F - 62.6 °F 100% 30.28 in 10.0 mi Calm Calm - N/A   Clear
11:35 PM 62.6 °F - 62.6 °F 100% 30.28 in 10.0 mi Calm Calm - N/A   Clear
11:55 PM 62.6 °F - 62.6 °F 100% 30.29 in 10.0 mi Calm Calm - N/A   Clear